Home > Weather > Weyhe > Past weeks

Flag for Germany Past Weather in Weyhe, Lower Saxony, Germany — Yesterday and Last 2 Weeks

Now
50 °F

Cool.


Feels Like: 50 °F
Forecast: 51 / 77 °F
Wind: No wind

Location: Bremen Airport

Current Time: Aug 30, 2016 at 5:13:10 AM

Latest Report: Aug 30, 2016 at 4:20 AM


Visibility: N/A

Pressure: 30.24 "Hg

Humidity: 100%

Dew Point: 50 °F

Location of WeyheLocation

Past Weather in Weyhe — Graph

°F

Weyhe Temperature Yesterday

Maximum temperature yesterday: 66 °F (at 10:50 AM)
Minimum temperature yesterday: 54 °F (at 10:50 PM)
Average temperature yesterday: 63 °F

High & Low Weather Summary for the Past Weeks

 TemperatureHumidityPressure
High90 °F (Aug 25, 3:20 PM)100% (Aug 15, 3:20 AM)30.33 "Hg (Aug 15, 3:20 AM)
Low45 °F (Aug 16, 4:50 AM)29% (Aug 25, 4:20 PM)29.80 "Hg (Aug 18, 4:20 PM)
Average66 °F75%30.04 "Hg
* Reported Aug 15 3:20 AM — Aug 30 3:20 AM, Weyhe, Weather by CustomWeather, © 2016

Note: Actual official high and low records may vary slightly from our data, if they occured in-between our weather recording intervals... More about our weather records

Advertising

Weyhe Weather History for the Previous 24 Hours

Scroll right to see more
 ConditionsComfort  
Time TempWeatherWind HumidityBarometerVisibility
3:20 AM
Tue, Aug 30
50 °FCool.3 mph100%30.24 "HgN/A
2:50 AM50 °FCool.2 mph100%30.24 "HgN/A
2:20 AM50 °FCool.2 mph100%30.24 "HgN/A
1:50 AM50 °FFog.2 mph100%30.24 "HgN/A
1:20 AM52 °FFog.1 mph100%30.24 "HgN/A
12:50 AM52 °FFog.2 mph100%30.24 "HgN/A
12:20 AM50 °FFog.2 mph100%30.24 "HgN/A
11:50 PM
Mon, Aug 29
54 °FFog.2 mph94%30.21 "HgN/A
11:20 PM54 °FFog.2 mph94%30.21 "HgN/A
10:50 PM54 °FClear.3 mph94%30.21 "Hg10 mi
10:20 PM55 °FClear.6 mph82%30.21 "Hg10 mi
9:50 PM57 °FClear.6 mph82%30.18 "Hg10 mi
9:20 PM59 °FClear.8 mph77%30.18 "Hg10 mi
8:50 PM61 °FPassing clouds.9 mph72%30.15 "HgN/A
8:20 PM63 °FPassing clouds.9 mph68%30.15 "HgN/A
7:50 PM64 °FPassing clouds.10 mph64%30.15 "HgN/A
7:20 PM64 °FPassing clouds.13 mph68%30.15 "HgN/A
6:50 PM64 °FPassing clouds.14 mph68%30.12 "HgN/A
6:20 PM66 °FScattered clouds.12 mph64%30.12 "HgN/A
5:50 PM66 °FScattered clouds.13 mph60%30.12 "HgN/A
5:20 PM66 °FPartly sunny.13 mph60%30.12 "HgN/A
4:50 PM66 °FPartly sunny.13 mph68%30.09 "HgN/A
4:20 PM64 °FPartly sunny.10 mph78%30.09 "HgN/A
3:50 PM63 °FPartly sunny.12 mph83%30.09 "HgN/A
3:20 PM63 °FPartly sunny.5 mph88%30.09 "HgN/A
2:50 PM63 °FSprinkles. Partly sunny.14 mph77%30.07 "HgN/A
2:20 PM66 °FPartly sunny.7 mph73%30.07 "HgN/A
1:50 PM64 °FBroken clouds.9 mph73%30.07 "HgN/A
1:20 PM66 °FSprinkles. Broken clouds.12 mph73%30.04 "HgN/A
12:50 PM66 °FBroken clouds.10 mph73%30.04 "HgN/A
12:20 PM64 °FBroken clouds.6 mph83%30.04 "HgN/A
11:50 AM63 °FPartly sunny.7 mph88%30.01 "HgN/A
11:20 AM63 °FDrizzle. Broken clouds.16 mph88%30.01 "Hg3 mi
10:50 AM66 °FBroken clouds.12 mph83%30.01 "HgN/A
10:20 AM64 °FBroken clouds.13 mph88%29.98 "HgN/A
9:50 AM64 °FScattered clouds.10 mph88%29.98 "HgN/A
9:20 AM63 °FPartly sunny.14 mph94%29.98 "HgN/A
8:50 AM63 °FDrizzle. Partly sunny.10 mph94%29.95 "Hg6 mi
8:20 AM64 °FPartly sunny.13 mph83%29.95 "HgN/A
7:50 AM63 °FBroken clouds.13 mph88%29.92 "HgN/A
7:20 AM63 °FPassing clouds.12 mph88%29.92 "HgN/A
6:50 AM63 °FPassing clouds.10 mph88%29.92 "HgN/A
6:20 AM63 °FPartly cloudy.10 mph88%29.92 "HgN/A
5:50 AM63 °FPassing clouds.13 mph88%29.92 "HgN/A
5:20 AM63 °FPassing clouds.12 mph88%29.92 "HgN/A
Weather by CustomWeather, © 2016

See weather overviewHow to use our weather pages